Rechercher aéroport 
image banner adimage banner ad
image banner ad

DAAP - Illizi / Takhamalt

Situé à Illizi, Algeria

ICAO - DAAP, IATA - VVZ

Données fournies par Airmate  

Information générale

Coordonnées: N26°43'25" E8°37'4"
Élévation : 1778 feet MSL.
 
Voir autres Aéroports à Illizi Province

Données opérationnelles

Accessible au public
Heure actuelle UTC:
Heure actuelle locale:
Météo
METAR: DAAP 301900Z 06011KT CAVOK 23/04 Q1022
TAF: TAF DAAP 301700Z 3018/3103 07010KT CAVOK PROB30 TEMPO 3019/3021 07020KT 4000 DRSA
Voir NOTAMs / SUP AIP / TFR affectant cet aéroport [VIEW]
Fréquences de communication: [VIEW]

Pistes:

Identifiant RWYQFULongueur (ft)Largeur (ft)SurfaceLDA (ft)
0991°9843148ASP
27271°9843148

Coordonnées de l'aéroport

Adresse: Illizi Algeria

Vue satellite de DAAP